When you browse on this site, cookies collect data to enhance your experience and personalize the content and advertising you see.
Visit our Privacy Policy to learn more. By continuing to use the site, you agree to this use of cookies and data.
  • In United Kingdom
  • List of Countries
  • For 7 days
  • Water Temperature
  • Satellite Maps
  • Weather Map
  • Weather Widgets
  • user-avatar
    Login

    Hourly Weather Bogatynia

    Today, 20 June, Thursday

    Time Temperature Precipitation Wind Pressure Humidity
    00:00 +19°C° 0 mm 2 mps 736 mmHg 80%
    01:00 +18°C° 0 mm 3 mps 736 mmHg 80%
    02:00 +18°C° 0.1 mm 2 mps 736 mmHg 81%
    03:00 +18°C° 0.1 mm 2 mps 736 mmHg 82%
    04:00 +18°C° 0.1 mm 2 mps 736 mmHg 83%
    05:00 +19°C° 0.1 mm 2 mps 736 mmHg 82%
    06:00 +21°C° 0.1 mm 2 mps 736 mmHg 81%
    07:00 +23°C° 0.1 mm 2 mps 737 mmHg 80%
    08:00 +25°C° 0.1 mm 2 mps 737 mmHg 74%
    09:00 +26°C° 0.1 mm 2 mps 737 mmHg 67%
    10:00 +28°C° 0.1 mm 2 mps 737 mmHg 60%
    11:00 +28°C° 0.8 mm 3 mps 737 mmHg 60%
    12:00 +28°C° 0.8 mm 3 mps 737 mmHg 60%
    13:00 +28°C° 0.8 mm 3 mps 737 mmHg 59%
    14:00 +28°C° 0.5 mm 3 mps 737 mmHg 59%
    15:00 +28°C° 0.5 mm 2 mps 737 mmHg 59%
    16:00 +28°C° 0.5 mm 2 mps 737 mmHg 59%
    17:00 +27°C° 0.7 mm 2 mps 737 mmHg 66%
    18:00 +25°C° 0.7 mm 2 mps 737 mmHg 74%
    19:00 +24°C° 0.7 mm 2 mps 738 mmHg 82%
    20:00 +21°C° 0.3 mm 2 mps 738 mmHg 85%
    21:00 +20°C° 0.3 mm 2 mps 738 mmHg 88%
    22:00 +19°C° 0.3 mm 2 mps 739 mmHg 91%
    23:00 +19°C° 0.2 mm 1 mps 739 mmHg 91%

    Tomorrow, 21 June, Friday

    Time Temperature Precipitation Wind Pressure Humidity
    00:00 +19°C° 0.2 mm 1 mps 739 mmHg 92%
    01:00 +19°C° 0.2 mm 1 mps 739 mmHg 92%
    02:00 +19°C° 0 mm 1 mps 739 mmHg 92%
    03:00 +18°C° 0 mm 1 mps 739 mmHg 93%
    04:00 +18°C° 0 mm 1 mps 739 mmHg 93%
    05:00 +19°C° 0 mm 1 mps 740 mmHg 91%
    06:00 +19°C° 0 mm 2 mps 740 mmHg 89%
    07:00 +20°C° 0 mm 2 mps 741 mmHg 87%
    08:00 +21°C° 0.1 mm 2 mps 741 mmHg 83%
    09:00 +21°C° 0.1 mm 2 mps 741 mmHg 78%
    10:00 +23°C° 0.1 mm 2 mps 742 mmHg 73%
    11:00 +24°C° 0.4 mm 3 mps 741 mmHg 73%
    12:00 +24°C° 0.4 mm 3 mps 741 mmHg 73%
    13:00 +24°C° 0.4 mm 3 mps 741 mmHg 74%
    14:00 +24°C° 0.4 mm 3 mps 741 mmHg 72%
    15:00 +24°C° 0.4 mm 3 mps 741 mmHg 71%
    16:00 +24°C° 0.4 mm 3 mps 741 mmHg 70%
    17:00 +24°C° 0.1 mm 2 mps 741 mmHg 73%
    18:00 +23°C° 0.1 mm 2 mps 741 mmHg 76%
    19:00 +21°C° 0.1 mm 2 mps 741 mmHg 79%
    20:00 +20°C° 0 mm 2 mps 742 mmHg 82%
    21:00 +18°C° 0 mm 2 mps 742 mmHg 84%
    22:00 +17°C° 0 mm 2 mps 743 mmHg 86%
    23:00 +16°C° 0 mm 2 mps 743 mmHg 88%

    Day after tomorrow, 22 June, Saturday

    Time Temperature Precipitation Wind Pressure Humidity
    00:00 +16°C° 0 mm 1 mps 743 mmHg 90%
    01:00 +15°C° 0 mm 1 mps 743 mmHg 92%
    02:00 +15°C° 0 mm 1 mps 743 mmHg 93%
    03:00 +15°C° 0 mm 2 mps 744 mmHg 95%
    04:00 +14°C° 0 mm 2 mps 744 mmHg 96%
    05:00 +16°C° 0 mm 2 mps 744 mmHg 92%
    06:00 +17°C° 0 mm 3 mps 744 mmHg 87%
    07:00 +18°C° 0 mm 4 mps 745 mmHg 83%
    08:00 +19°C° 0 mm 4 mps 745 mmHg 77%
    09:00 +20°C° 0 mm 4 mps 745 mmHg 71%
    10:00 +21°C° 0 mm 4 mps 745 mmHg 64%
    11:00 +21°C° 0 mm 5 mps 744 mmHg 63%
    12:00 +22°C° 0 mm 5 mps 744 mmHg 61%
    13:00 +22°C° 0 mm 5 mps 744 mmHg 59%
    14:00 +22°C° 0 mm 5 mps 744 mmHg 61%
    15:00 +21°C° 0 mm 5 mps 743 mmHg 63%
    16:00 +21°C° 0 mm 5 mps 743 mmHg 65%
    17:00 +20°C° 0 mm 4 mps 743 mmHg 69%
    18:00 +20°C° 0 mm 4 mps 743 mmHg 72%
    19:00 +19°C° 0 mm 4 mps 743 mmHg 75%
    20:00 +19°C° 0 mm 3 mps 743 mmHg 77%
    21:00 +18°C° 0 mm 3 mps 744 mmHg 79%
    22:00 +17°C° 0 mm 3 mps 744 mmHg 81%
    23:00 +17°C° 0 mm 3 mps 744 mmHg 84%

    23 June, Sunday

    Time Temperature Precipitation Wind Pressure Humidity
    00:00 +16°C° 0 mm 3 mps 744 mmHg 86%
    01:00 +16°C° 0 mm 3 mps 744 mmHg 89%
    02:00 +14°C° 0 mm 3 mps 744 mmHg 90%
    03:00 +14°C° 0 mm 3 mps 744 mmHg 91%
    04:00 +13°C° 0 mm 3 mps 744 mmHg 93%
    05:00 +14°C° 0 mm 3 mps 744 mmHg 88%
    06:00 +16°C° 0 mm 3 mps 745 mmHg 84%
    07:00 +17°C° 0 mm 3 mps 745 mmHg 79%
    08:00 +18°C° 0 mm 4 mps 745 mmHg 74%
    09:00 +19°C° 0 mm 4 mps 745 mmHg 69%
    10:00 +20°C° 0 mm 4 mps 746 mmHg 64%
    11:00 +21°C° 0 mm 4 mps 746 mmHg 62%
    12:00 +21°C° 0 mm 4 mps 745 mmHg 59%
    13:00 +21°C° 0 mm 4 mps 745 mmHg 56%
    14:00 +21°C° 0 mm 4 mps 745 mmHg 55%
    15:00 +21°C° 0 mm 4 mps 745 mmHg 53%
    16:00 +21°C° 0 mm 4 mps 745 mmHg 51%
    17:00 +20°C° 0 mm 3 mps 745 mmHg 57%
    18:00 +19°C° 0 mm 3 mps 745 mmHg 63%
    19:00 +19°C° 0 mm 2 mps 745 mmHg 68%
    20:00 +17°C° 0 mm 2 mps 746 mmHg 72%
    21:00 +16°C° 0 mm 2 mps 746 mmHg 76%
    22:00 +15°C° 0 mm 2 mps 746 mmHg 80%
    23:00 +14°C° 0 mm 2 mps 746 mmHg 83%

    24 June, Monday

    Time Temperature Precipitation Wind Pressure Humidity
    00:00 +14°C° 0 mm 1 mps 746 mmHg 86%
    01:00 +14°C° 0 mm 1 mps 746 mmHg 88%
    02:00 +13°C° 0 mm 1 mps 746 mmHg 89%
    03:00 +13°C° 0 mm 1 mps 746 mmHg 89%
    04:00 +13°C° 0 mm 1 mps 746 mmHg 89%
    05:00 +15°C° 0 mm 1 mps 747 mmHg 84%
    06:00 +16°C° 0 mm 1 mps 747 mmHg 79%
    07:00 +18°C° 0 mm 2 mps 747 mmHg 75%
    08:00 +20°C° 0 mm 2 mps 747 mmHg 69%
    09:00 +23°C° 0 mm 2 mps 747 mmHg 64%
    10:00 +25°C° 0 mm 3 mps 747 mmHg 59%
    11:00 +25°C° 0 mm 3 mps 747 mmHg 57%
    12:00 +26°C° 0 mm 3 mps 747 mmHg 55%
    13:00 +27°C° 0 mm 3 mps 747 mmHg 53%
    14:00 +27°C° 0 mm 3 mps 747 mmHg 54%
    15:00 +27°C° 0 mm 3 mps 747 mmHg 55%
    16:00 +27°C° 0 mm 3 mps 746 mmHg 56%
    17:00 +26°C° 0 mm 3 mps 747 mmHg 63%
    18:00 +24°C° 0 mm 2 mps 747 mmHg 69%
    19:00 +23°C° 0 mm 2 mps 747 mmHg 76%
    20:00 +21°C° 0 mm 2 mps 747 mmHg 80%
    21:00 +19°C° 0 mm 2 mps 747 mmHg 85%
    22:00 +18°C° 0 mm 2 mps 747 mmHg 89%
    23:00 +18°C° 0 mm 1 mps 747 mmHg 89%

    25 June, Tuesday

    Time Temperature Precipitation Wind Pressure Humidity
    00:00 +18°C° 0 mm 1 mps 747 mmHg 89%
    01:00 +16°C° 0 mm 1 mps 747 mmHg 89%
    02:00 +16°C° 0 mm 1 mps 747 mmHg 89%
    03:00 +16°C° 0 mm 1 mps 747 mmHg 90%
    04:00 +15°C° 0 mm 1 mps 747 mmHg 90%
    05:00 +18°C° 0 mm 1 mps 747 mmHg 85%
    06:00 +20°C° 0 mm 1 mps 747 mmHg 80%
    07:00 +21°C° 0 mm 2 mps 748 mmHg 76%
    08:00 +24°C° 0 mm 2 mps 748 mmHg 70%
    09:00 +25°C° 0 mm 2 mps 748 mmHg 65%
    10:00 +27°C° 0 mm 3 mps 748 mmHg 59%
    11:00 +28°C° 0 mm 3 mps 748 mmHg 59%
    12:00 +28°C° 0 mm 3 mps 747 mmHg 58%
    13:00 +29°C° 0 mm 3 mps 747 mmHg 57%
    14:00 +29°C° 0 mm 3 mps 747 mmHg 59%
    15:00 +29°C° 0 mm 3 mps 747 mmHg 61%
    16:00 +29°C° 0 mm 3 mps 746 mmHg 63%
    17:00 +28°C° 0 mm 2 mps 746 mmHg 69%
    18:00 +27°C° 0 mm 2 mps 746 mmHg 74%
    19:00 +26°C° 0 mm 2 mps 746 mmHg 80%
    20:00 +24°C° 0 mm 1 mps 746 mmHg 84%
    21:00 +23°C° 0 mm 1 mps 746 mmHg 88%
    22:00 +21°C° 0 mm 1 mps 746 mmHg 92%
    23:00 +21°C° 0 mm 1 mps 746 mmHg 91%
    Show more